QPF
0.00 0.00 0.00 0.00 0.00 0.00 0.00 0.00 0.00 0.00 0.00 0.00 0.00 0.00 0.00 0.00 0.00 0.00 0.00 0.00 0.00 0.00 0.00 0.00 0.00 0.00 0.01 0.01 0.02 0.05 0.07 0.07 0.07 0.05 0.05 0.06 0.06 0.05 0.05 0.04 0.04 0.04 0.03 0.03
0.00 0.00 0.00 0.00 0.00 0.00 0.00 0.00 0.00 0.00 0.01 0.00 0.00 0.00 0.00 0.00 0.00 0.00 0.00 0.00 0.00 0.00 0.00 0.00 0.00 0.00 0.00 0.01 0.01 0.02 0.04 0.04 0.05 0.05 0.06 0.07 0.07 0.06 0.06 0.06 0.07 0.04 0.04 0.03
0.00 0.00 0.00 0.00 0.00 0.00 0.00 0.00 0.00 0.00 0.01 0.00 0.00 0.00 0.00 0.00 0.00 0.00 0.00 0.00 0.00 0.00 0.00 0.00 0.00 0.00 0.00 0.00 0.00 0.01 0.03 0.05 0.05 0.06 0.07 0.07 0.09 0.08 0.08 0.07 0.06 0.04 0.04 0.03
0.00 0.00 0.00 0.00 0.00 0.00 0.00 0.00 0.00 0.00 0.00 0.00 0.00 0.00 0.01 0.01 0.02 0.00 0.00 0.00 0.00 0.00 0.00 0.00 0.00 0.00 0.00 0.00 0.00 0.01 0.03 0.04 0.04 0.05 0.05 0.04 0.04 0.06 0.06 0.06 0.06 0.04 0.04 0.04
0.00 0.00 0.00 0.00 0.00 0.00 0.00 0.00 0.00 0.00 0.00 0.00 0.00 0.00 0.02 0.06 0.06 0.02 0.00 0.00 0.01 0.01 0.01 0.00 0.00 0.00 0.00 0.01 0.00 0.01 0.02 0.03 0.03 0.03 0.04 0.05 0.07 0.08 0.08 0.08 0.08 0.07 0.06 0.04
0.00 0.00 0.00 0.00 0.00 0.00 0.00 0.00 0.00 0.00 0.00 0.00 0.00 0.00 0.01 0.05 0.07 0.04 0.01 0.00 0.00 0.00 0.00 0.00 0.00 0.00 0.01 0.01 0.01 0.01 0.02 0.03 0.04 0.04 0.05 0.06 0.08 0.09 0.10 0.09 0.08 0.07 0.06 0.05
0.00 0.00 0.00 0.00 0.00 0.00 0.00 0.00 0.00 0.01 0.01 0.00 0.00 0.00 0.00 0.01 0.01 0.02 0.01 0.00 0.00 0.00 0.00 0.00 0.00 0.00 0.01 0.01 0.01 0.02 0.03 0.03 0.03 0.04 0.04 0.04 0.07 0.11 0.10 0.07 0.08 0.08 0.05 0.04
0.00 0.00 0.00 0.00 0.00 0.00 0.00 0.00 0.00 0.01 0.01 0.01 0.00 0.00 0.00 0.00 0.00 0.00 0.00 0.00 0.00 0.00 0.00 0.00 0.01 0.01 0.01 0.01 0.01 0.01 0.02 0.03 0.04 0.04 0.05 0.05 0.07 0.06 0.06 0.06 0.06 0.07 0.04 0.03
0.00 0.00 0.00 0.00 0.00 0.00 0.00 0.00 0.00 0.00 0.02 0.02 0.02 0.00 0.00 0.00 0.00 0.00 0.00 0.00 0.00 0.00 0.00 0.00 0.01 0.00 0.01 0.01 0.01 0.02 0.02 0.03 0.04 0.05 0.06 0.08 0.08 0.07 0.07 0.07 0.06 0.08 0.06 0.04
0.00 0.00 0.00 0.00 0.00 0.00 0.00 0.00 0.00 0.00 0.01 0.02 0.02 0.01 0.01 0.01 0.00 0.00 0.00 0.00 0.00 0.00 0.00 0.01 0.01 0.00 0.00 0.01 0.01 0.02 0.02 0.03 0.03 0.04 0.05 0.07 0.08 0.07 0.08 0.07 0.06 0.08 0.07 0.06
0.00 0.00 0.00 0.00 0.00 0.00 0.00 0.00 0.00 0.00 0.00 0.01 0.02 0.02 0.01 0.01 0.00 0.00 0.00 0.00 0.00 0.00 0.00 0.01 0.01 0.01 0.01 0.01 0.02 0.02 0.03 0.04 0.04 0.04 0.04 0.08 0.08 0.08 0.07 0.06 0.06 0.08 0.10 0.09
0.00 0.00 0.00 0.00 0.00 0.00 0.00 0.00 0.00 0.00 0.00 0.00 0.01 0.03 0.01 0.01 0.00 0.00 0.00 0.00 0.00 0.00 0.00 0.01 0.01 0.01 0.01 0.02 0.02 0.02 0.03 0.04 0.04 0.04 0.05 0.08 0.08 0.08 0.07 0.06 0.05 0.07 0.08 0.07
0.00 0.00 0.01 0.01 0.00 0.00 0.00 0.00 0.00 0.00 0.00 0.01 0.01 0.03 0.00 0.00 0.01 0.00 0.00 0.00 0.00 0.00 0.00 0.01 0.02 0.02 0.02 0.02 0.02 0.01 0.02 0.03 0.03 0.03 0.05 0.08 0.08 0.08 0.07 0.06 0.06 0.07 0.07 0.06
0.00 0.00 0.01 0.02 0.01 0.00 0.00 0.00 0.00 0.00 0.00 0.00 0.00 0.01 0.01 0.01 0.01 0.00 0.00 0.01 0.02 0.00 0.01 0.04 0.06 0.04 0.02 0.02 0.01 0.01 0.02 0.03 0.03 0.02 0.04 0.06 0.07 0.08 0.07 0.06 0.05 0.06 0.06 0.06
0.00 0.00 0.00 0.01 0.01 0.01 0.00 0.00 0.00 0.00 0.00 0.00 0.00 0.01 0.01 0.01 0.01 0.01 0.01 0.01 0.02 0.00 0.01 0.06 0.06 0.02 0.01 0.01 0.02 0.02 0.02 0.03 0.03 0.02 0.03 0.05 0.06 0.07 0.07 0.06 0.05 0.06 0.06 0.06
0.00 0.00 0.00 0.00 0.01 0.01 0.00 0.00 0.00 0.00 0.00 0.00 0.00 0.01 0.01 0.01 0.02 0.03 0.02 0.03 0.02 0.01 0.01 0.05 0.02 0.01 0.01 0.01 0.01 0.02 0.02 0.03 0.02 0.02 0.03 0.04 0.06 0.07 0.06 0.05 0.05 0.06 0.07 0.07
0.01 0.01 0.00 0.00 0.00 0.01 0.01 0.00 0.00 0.00 0.00 0.00 0.01 0.03 0.04 0.05 0.02 0.02 0.01 0.02 0.03 0.05 0.04 0.02 0.01 0.01 0.01 0.01 0.01 0.01 0.02 0.01 0.02 0.02 0.02 0.03 0.04 0.05 0.06 0.06 0.05 0.06 0.06 0.06
0.03 0.02 0.01 0.01 0.02 0.02 0.01 0.00 0.00 0.00 0.00 0.00 0.02 0.03 0.03 0.05 0.04 0.02 0.02 0.03 0.01 0.02 0.02 0.01 0.00 0.00 0.01 0.02 0.01 0.01 0.03 0.02 0.01 0.02 0.02 0.02 0.03 0.04 0.05 0.06 0.06 0.06 0.07 0.06
0.02 0.03 0.03 0.02 0.03 0.03 0.03 0.02 0.01 0.01 0.03 0.02 0.02 0.03 0.04 0.04 0.05 0.08 0.06 0.04 0.02 0.01 0.01 0.00 0.00 0.00 0.01 0.01 0.01 0.01 0.01 0.02 0.02 0.02 0.02 0.02 0.03 0.04 0.05 0.06 0.06 0.07 0.08 0.07
0.01 0.02 0.03 0.03 0.05 0.05 0.04 0.03 0.02 0.03 0.08 0.06 0.02 0.02 0.02 0.03 0.05 0.10 0.09 0.06 0.02 0.02 0.02 0.01 0.01 0.01 0.01 0.02 0.01 0.01 0.02 0.02 0.03 0.03 0.02 0.02 0.02 0.04 0.05 0.06 0.07 0.09 0.08 0.08
0.04 0.05 0.03 0.03 0.06 0.08 0.05 0.02 0.03 0.06 0.10 0.06 0.02 0.02 0.03 0.05 0.06 0.06 0.05 0.03 0.02 0.03 0.02 0.02 0.03 0.03 0.03 0.03 0.04 0.04 0.04 0.04 0.04 0.05 0.05 0.04 0.03 0.05 0.07 0.10 0.10 0.11 0.11 0.14
0.05 0.05 0.04 0.05 0.09 0.11 0.06 0.04 0.06 0.08 0.09 0.05 0.04 0.04 0.04 0.03 0.03 0.03 0.02 0.01 0.02 0.02 0.02 0.03 0.03 0.04 0.04 0.03 0.04 0.05 0.06 0.05 0.05 0.05 0.05 0.06 0.05 0.05 0.09 0.12 0.11 0.10 0.11 0.13
0.07 0.08 0.08 0.09 0.11 0.10 0.07 0.07 0.09 0.07 0.06 0.05 0.04 0.03 0.03 0.02 0.02 0.02 0.02 0.02 0.02 0.02 0.02 0.02 0.02 0.02 0.02 0.02 0.03 0.05 0.05 0.05 0.04 0.05 0.06 0.06 0.06 0.08 0.10 0.11 0.11 0.10 0.11 0.12
0.10 0.08 0.10 0.09 0.10 0.09 0.08 0.09 0.11 0.13 0.08 0.05 0.03 0.03 0.02 0.02 0.01 0.02 0.02 0.02 0.02 0.02 0.01 0.01 0.01 0.02 0.02 0.03 0.04 0.05 0.05 0.05 0.06 0.06 0.07 0.08 0.09 0.10 0.11 0.12 0.12 0.11 0.12 0.12
0.12 0.10 0.13 0.12 0.11 0.12 0.07 0.08 0.09 0.10 0.05 0.04 0.03 0.03 0.02 0.02 0.01 0.02 0.02 0.03 0.02 0.02 0.02 0.01 0.01 0.02 0.03 0.03 0.02 0.02 0.04 0.05 0.06 0.07 0.07 0.09 0.10 0.12 0.12 0.10 0.11 0.13 0.13 0.14
0.12 0.11 0.12 0.14 0.12 0.12 0.12 0.11 0.08 0.06 0.06 0.05 0.03 0.03 0.03 0.02 0.01 0.02 0.02 0.02 0.02 0.02 0.02 0.01 0.00 0.01 0.02 0.02 0.01 0.01 0.02 0.03 0.05 0.06 0.07 0.08 0.09 0.11 0.11 0.11 0.11 0.11 0.11 0.12
MSLP
1005.09 1005.33 1005.36 1005.24 1005.02 1004.79 1004.58 1004.45 1004.36 1004.30 1004.21 1004.05 1003.80 1003.46 1003.07 1002.70 1002.42 1002.30 1002.37 1002.66 1003.14 1003.78 1004.51 1005.27 1006.01 1006.69 1007.31 1007.88 1008.41 1008.92 1009.44 1009.97 1010.49 1011.00 1011.47 1011.90 1012.27 1012.58 1012.86 1013.11 1013.37 1013.63 1013.92 1014.23
1005.23 1005.30 1005.17 1004.93 1004.67 1004.46 1004.36 1004.37 1004.45 1004.55 1004.58 1004.49 1004.23 1003.82 1003.31 1002.78 1002.33 1002.04 1001.99 1002.20 1002.65 1003.29 1004.05 1004.85 1005.63 1006.35 1007.00 1007.57 1008.11 1008.64 1009.17 1009.73 1010.29 1010.84 1011.36 1011.81 1012.20 1012.51 1012.77 1013.01 1013.24 1013.49 1013.78 1014.10
1005.17 1005.07 1004.81 1004.50 1004.24 1004.10 1004.13 1004.31 1004.58 1004.84 1004.99 1004.95 1004.68 1004.18 1003.53 1002.82 1002.18 1001.73 1001.54 1001.66 1002.06 1002.69 1003.47 1004.31 1005.13 1005.88 1006.54 1007.14 1007.69 1008.23 1008.78 1009.37 1009.98 1010.58 1011.14 1011.64 1012.06 1012.39 1012.66 1012.88 1013.10 1013.35 1013.65 1013.98
1004.88 1004.65 1004.31 1003.98 1003.76 1003.74 1003.93 1004.30 1004.76 1005.18 1005.43 1005.43 1005.12 1004.52 1003.71 1002.81 1001.98 1001.36 1001.02 1001.03 1001.38 1001.99 1002.78 1003.65 1004.51 1005.29 1005.99 1006.60 1007.16 1007.71 1008.29 1008.91 1009.55 1010.20 1010.82 1011.37 1011.83 1012.20 1012.48 1012.72 1012.95 1013.21 1013.51 1013.87
1004.40 1004.09 1003.72 1003.41 1003.29 1003.41 1003.78 1004.34 1004.97 1005.53 1005.86 1005.87 1005.51 1004.80 1003.83 1002.75 1001.74 1000.94 1000.46 1000.37 1000.65 1001.24 1002.04 1002.93 1003.82 1004.63 1005.35 1005.98 1006.55 1007.11 1007.70 1008.34 1009.02 1009.72 1010.39 1010.99 1011.50 1011.91 1012.23 1012.50 1012.75 1013.02 1013.35 1013.73
1003.79 1003.44 1003.10 1002.87 1002.87 1003.14 1003.68 1004.42 1005.20 1005.86 1006.25 1006.25 1005.83 1005.00 1003.89 1002.65 1001.47 1000.51 999.91 999.72 999.94 1000.50 1001.30 1002.20 1003.11 1003.94 1004.68 1005.31 1005.89 1006.45 1007.05 1007.70 1008.40 1009.12 1009.83 1010.49 1011.05 1011.51 1011.87 1012.18 1012.47 1012.77 1013.12 1013.54
1003.13 1002.80 1002.51 1002.38 1002.51 1002.94 1003.63 1004.49 1005.38 1006.11 1006.52 1006.51 1006.03 1005.11 1003.89 1002.52 1001.21 1000.14 999.43 999.16 999.32 999.84 1000.62 1001.52 1002.43 1003.27 1004.01 1004.64 1005.21 1005.76 1006.35 1006.99 1007.69 1008.44 1009.17 1009.87 1010.48 1010.99 1011.41 1011.76 1012.09 1012.43 1012.82 1013.27
1002.51 1002.23 1002.02 1002.00 1002.24 1002.78 1003.57 1004.52 1005.46 1006.21 1006.63 1006.60 1006.07 1005.11 1003.82 1002.38 1001.00 999.86 999.09 998.75 998.86 999.33 1000.07 1000.95 1001.84 1002.66 1003.38 1003.99 1004.54 1005.07 1005.63 1006.25 1006.94 1007.68 1008.44 1009.16 1009.81 1010.37 1010.84 1011.24 1011.62 1012.01 1012.44 1012.93
1002.02 1001.80 1001.67 1001.73 1002.05 1002.65 1003.48 1004.45 1005.39 1006.13 1006.53 1006.47 1005.94 1004.97 1003.68 1002.24 1000.85 999.69 998.90 998.53 998.58 999.01 999.70 1000.52 1001.37 1002.15 1002.83 1003.41 1003.92 1004.42 1004.94 1005.53 1006.20 1006.92 1007.67 1008.41 1009.09 1009.69 1010.21 1010.67 1011.10 1011.53 1012.01 1012.54
1001.70 1001.54 1001.47 1001.58 1001.93 1002.53 1003.33 1004.25 1005.13 1005.82 1006.18 1006.11 1005.60 1004.67 1003.45 1002.08 1000.76 999.65 998.87 998.49 998.52 998.89 999.51 1000.26 1001.04 1001.76 1002.39 1002.93 1003.40 1003.85 1004.33 1004.88 1005.51 1006.21 1006.95 1007.69 1008.39 1009.03 1009.60 1010.11 1010.59 1011.07 1011.59 1012.15
1001.60 1001.49 1001.45 1001.56 1001.88 1002.40 1003.11 1003.90 1004.67 1005.26 1005.57 1005.50 1005.03 1004.20 1003.10 1001.87 1000.68 999.68 998.97 998.62 998.63 998.95 999.50 1000.18 1000.87 1001.53 1002.09 1002.58 1003.00 1003.41 1003.86 1004.37 1004.96 1005.63 1006.35 1007.08 1007.79 1008.45 1009.06 1009.62 1010.15 1010.68 1011.24 1011.84
1001.73 1001.64 1001.60 1001.67 1001.90 1002.29 1002.82 1003.44 1004.04 1004.50 1004.73 1004.66 1004.25 1003.55 1002.62 1001.58 1000.58 999.73 999.13 998.84 998.85 999.14 999.63 1000.23 1000.85 1001.43 1001.94 1002.38 1002.77 1003.14 1003.55 1004.03 1004.58 1005.21 1005.90 1006.62 1007.34 1008.02 1008.66 1009.27 1009.85 1010.43 1011.02 1011.65
1002.09 1002.00 1001.92 1001.90 1001.99 1002.20 1002.52 1002.91 1003.29 1003.59 1003.73 1003.63 1003.30 1002.73 1001.99 1001.17 1000.38 999.72 999.27 999.06 999.12 999.39 999.83 1000.37 1000.93 1001.45 1001.92 1002.33 1002.69 1003.05 1003.43 1003.87 1004.39 1004.99 1005.65 1006.35 1007.06 1007.76 1008.43 1009.08 1009.71 1010.33 1010.96 1011.61
1002.63 1002.52 1002.38 1002.25 1002.17 1002.17 1002.24 1002.37 1002.52 1002.62 1002.63 1002.50 1002.21 1001.77 1001.22 1000.62 1000.06 999.60 999.31 999.22 999.33 999.63 1000.05 1000.55 1001.07 1001.57 1002.01 1002.40 1002.76 1003.11 1003.47 1003.90 1004.39 1004.95 1005.57 1006.25 1006.95 1007.66 1008.36 1009.05 1009.73 1010.39 1011.05 1011.72
1003.30 1003.15 1002.94 1002.70 1002.44 1002.21 1002.03 1001.89 1001.78 1001.67 1001.53 1001.33 1001.06 1000.71 1000.32 999.93 999.58 999.32 999.21 999.25 999.44 999.78 1000.22 1000.72 1001.23 1001.71 1002.16 1002.56 1002.92 1003.28 1003.64 1004.05 1004.52 1005.04 1005.64 1006.29 1006.98 1007.70 1008.42 1009.15 1009.86 1010.57 1011.26 1011.93
1004.01 1003.82 1003.54 1003.19 1002.77 1002.34 1001.91 1001.52 1001.15 1000.82 1000.52 1000.22 999.92 999.64 999.36 999.13 998.96 998.89 998.94 999.11 999.41 999.81 1000.29 1000.81 1001.34 1001.84 1002.31 1002.74 1003.13 1003.50 1003.87 1004.28 1004.72 1005.23 1005.79 1006.42 1007.10 1007.82 1008.57 1009.32 1010.07 1010.81 1011.52 1012.20
1004.65 1004.43 1004.10 1003.66 1003.12 1002.52 1001.89 1001.27 1000.68 1000.14 999.66 999.24 998.89 998.61 998.41 998.29 998.26 998.34 998.53 998.82 999.22 999.70 1000.23 1000.79 1001.36 1001.91 1002.41 1002.88 1003.31 1003.71 1004.10 1004.51 1004.95 1005.44 1005.98 1006.59 1007.26 1007.98 1008.74 1009.52 1010.30 1011.06 1011.78 1012.46
1005.11 1004.88 1004.52 1004.02 1003.41 1002.70 1001.93 1001.14 1000.36 999.64 999.00 998.46 998.03 997.72 997.54 997.48 997.54 997.73 998.02 998.42 998.90 999.45 1000.05 1000.67 1001.28 1001.87 1002.43 1002.94 1003.42 1003.85 1004.28 1004.70 1005.14 1005.63 1006.16 1006.77 1007.43 1008.15 1008.91 1009.70 1010.49 1011.26 1011.98 1012.64
1005.31 1005.07 1004.71 1004.21 1003.58 1002.83 1001.98 1001.09 1000.20 999.34 998.57 997.92 997.40 997.04 996.83 996.78 996.89 997.13 997.49 997.96 998.51 999.12 999.77 1000.44 1001.10 1001.74 1002.34 1002.91 1003.43 1003.91 1004.36 1004.81 1005.27 1005.77 1006.31 1006.91 1007.57 1008.29 1009.05 1009.83 1010.61 1011.36 1012.06 1012.69
1005.23 1004.98 1004.64 1004.18 1003.58 1002.85 1002.01 1001.09 1000.15 999.22 998.37 997.62 997.02 996.59 996.34 996.27 996.37 996.63 997.02 997.52 998.11 998.76 999.45 1000.16 1000.86 1001.53 1002.18 1002.78 1003.34 1003.87 1004.36 1004.84 1005.33 1005.85 1006.40 1007.00 1007.66 1008.37 1009.12 1009.88 1010.63 1011.35 1012.01 1012.58
1004.87 1004.63 1004.33 1003.93 1003.41 1002.76 1001.99 1001.12 1000.19 999.25 998.36 997.56 996.90 996.40 996.09 995.98 996.06 996.30 996.68 997.19 997.79 998.46 999.16 999.89 1000.60 1001.30 1001.97 1002.60 1003.19 1003.75 1004.28 1004.79 1005.31 1005.85 1006.42 1007.03 1007.69 1008.39 1009.11 1009.83 1010.54 1011.20 1011.80 1012.31
1004.34 1004.10 1003.84 1003.52 1003.11 1002.58 1001.92 1001.15 1000.30 999.40 998.52 997.71 997.02 996.47 996.11 995.95 995.97 996.18 996.54 997.03 997.62 998.28 998.98 999.70 1000.42 1001.11 1001.79 1002.42 1003.02 1003.59 1004.14 1004.68 1005.22 1005.77 1006.35 1006.97 1007.62 1008.30 1008.98 1009.66 1010.31 1010.91 1011.44 1011.89
1003.75 1003.50 1003.28 1003.05 1002.75 1002.36 1001.85 1001.22 1000.48 999.67 998.84 998.05 997.35 996.78 996.37 996.16 996.14 996.31 996.63 997.09 997.65 998.29 998.97 999.67 1000.36 1001.04 1001.68 1002.29 1002.88 1003.43 1003.97 1004.50 1005.04 1005.59 1006.17 1006.78 1007.41 1008.06 1008.72 1009.35 1009.95 1010.49 1010.96 1011.36
1003.24 1002.97 1002.78 1002.62 1002.44 1002.18 1001.82 1001.34 1000.73 1000.03 999.29 998.55 997.86 997.28 996.86 996.61 996.55 996.68 996.97 997.40 997.94 998.54 999.19 999.85 1000.50 1001.13 1001.72 1002.27 1002.80 1003.30 1003.78 1004.27 1004.78 1005.30 1005.86 1006.44 1007.06 1007.68 1008.31 1008.91 1009.48 1009.98 1010.42 1010.78
1002.92 1002.61 1002.43 1002.33 1002.24 1002.10 1001.88 1001.54 1001.07 1000.49 999.83 999.16 998.51 997.95 997.52 997.26 997.18 997.29 997.55 997.96 998.47 999.06 999.67 1000.28 1000.87 1001.42 1001.93 1002.39 1002.82 1003.22 1003.61 1004.01 1004.44 1004.90 1005.41 1005.96 1006.55 1007.16 1007.77 1008.37 1008.94 1009.45 1009.90 1010.28
1002.80 1002.46 1002.27 1002.20 1002.18 1002.14 1002.03 1001.81 1001.47 1001.00 1000.44 999.84 999.25 998.73 998.32 998.07 997.99 998.09 998.36 998.76 999.26 999.82 1000.40 1000.96 1001.48 1001.94 1002.33 1002.67 1002.96 1003.22 1003.47 1003.75 1004.06 1004.44 1004.87 1005.38 1005.94 1006.55 1007.19 1007.82 1008.44 1009.01 1009.53 1009.98
Thickness
5788 5780 5780 5795 5808 5815 5822 5824 5826 5841 5859 5845 5834 5834 5845 5855 5851 5846 5841 5835 5830 5826 5826 5824 5819 5813 5807 5801 5795 5790 5785 5780 5775 5771 5768 5766 5764 5765 5765 5764 5762 5760 5759 5758
5773 5773 5795 5810 5816 5814 5814 5815 5823 5841 5853 5840 5829 5830 5844 5852 5850 5848 5842 5835 5831 5827 5823 5820 5816 5811 5806 5800 5795 5790 5785 5780 5776 5773 5770 5768 5766 5764 5764 5763 5761 5760 5758 5757
5770 5789 5804 5803 5805 5805 5807 5809 5818 5825 5839 5837 5822 5814 5829 5844 5850 5850 5848 5844 5840 5832 5824 5819 5814 5810 5806 5800 5796 5792 5786 5782 5778 5774 5770 5768 5765 5762 5761 5759 5758 5759 5758 5756
5775 5796 5801 5797 5798 5803 5796 5818 5823 5822 5817 5809 5811 5791 5816 5830 5835 5839 5842 5843 5840 5836 5828 5821 5815 5809 5806 5802 5798 5793 5787 5782 5778 5775 5770 5765 5760 5757 5759 5759 5758 5758 5757 5756
5772 5789 5791 5790 5799 5806 5805 5822 5819 5816 5811 5804 5810 5797 5810 5829 5819 5826 5837 5841 5840 5837 5831 5824 5818 5812 5808 5804 5798 5793 5788 5782 5778 5775 5771 5767 5764 5762 5762 5761 5758 5757 5757 5756
5781 5799 5799 5799 5808 5811 5812 5810 5808 5807 5801 5779 5797 5794 5799 5821 5820 5825 5832 5841 5840 5839 5835 5828 5822 5815 5808 5804 5799 5793 5787 5782 5778 5775 5772 5768 5765 5763 5760 5758 5756 5755 5755 5756
5763 5783 5799 5805 5794 5800 5799 5783 5764 5760 5763 5771 5804 5798 5806 5833 5839 5837 5836 5840 5843 5842 5836 5827 5820 5812 5807 5802 5798 5793 5787 5781 5778 5775 5772 5769 5767 5764 5761 5759 5756 5755 5755 5755
5748 5756 5785 5795 5790 5786 5787 5784 5762 5751 5759 5776 5796 5792 5818 5843 5848 5849 5847 5844 5843 5840 5834 5827 5821 5814 5808 5803 5797 5792 5786 5781 5778 5775 5772 5770 5767 5765 5763 5761 5759 5758 5758 5758
5756 5758 5790 5798 5801 5795 5782 5783 5796 5782 5780 5776 5790 5805 5823 5841 5841 5843 5843 5841 5838 5836 5832 5827 5822 5815 5809 5803 5797 5793 5787 5782 5778 5775 5773 5770 5768 5765 5763 5762 5760 5759 5759 5759
5767 5759 5781 5794 5796 5795 5797 5792 5783 5774 5758 5758 5779 5792 5800 5814 5822 5832 5834 5834 5834 5833 5830 5825 5821 5816 5810 5805 5799 5793 5788 5783 5779 5776 5773 5770 5768 5766 5764 5763 5760 5760 5759 5759
5767 5754 5769 5780 5772 5775 5781 5783 5783 5780 5779 5765 5761 5782 5823 5819 5826 5829 5832 5833 5832 5830 5828 5823 5818 5815 5810 5804 5798 5791 5787 5782 5778 5776 5773 5771 5768 5766 5764 5762 5761 5760 5758 5756
5763 5757 5754 5770 5789 5796 5789 5786 5783 5766 5767 5778 5770 5779 5825 5828 5830 5830 5831 5832 5833 5831 5828 5824 5819 5814 5808 5802 5796 5790 5786 5781 5778 5776 5773 5770 5767 5766 5763 5762 5761 5759 5757 5755
5753 5744 5733 5744 5763 5777 5778 5785 5789 5785 5779 5773 5769 5781 5820 5825 5827 5828 5829 5829 5828 5826 5824 5821 5814 5809 5804 5799 5794 5789 5785 5781 5778 5775 5771 5768 5766 5764 5762 5761 5760 5758 5756 5754
5748 5738 5733 5732 5750 5763 5764 5776 5785 5782 5768 5771 5779 5785 5799 5807 5816 5820 5822 5823 5822 5819 5815 5812 5807 5802 5799 5796 5791 5787 5784 5781 5778 5774 5770 5766 5765 5763 5762 5760 5759 5757 5755 5753
5740 5729 5736 5746 5760 5768 5767 5772 5780 5779 5781 5777 5786 5790 5796 5803 5812 5815 5816 5815 5813 5809 5806 5803 5799 5797 5794 5791 5788 5785 5782 5779 5776 5772 5768 5766 5765 5763 5761 5759 5757 5755 5753 5752
5729 5723 5730 5735 5749 5759 5762 5772 5778 5780 5785 5787 5790 5792 5810 5810 5812 5810 5809 5807 5804 5802 5800 5799 5795 5792 5789 5786 5784 5781 5779 5777 5774 5770 5767 5765 5764 5761 5759 5757 5755 5753 5751 5750
5716 5714 5713 5721 5742 5745 5743 5767 5774 5778 5787 5787 5781 5790 5802 5799 5800 5801 5802 5801 5798 5798 5796 5794 5791 5788 5786 5785 5782 5779 5777 5775 5772 5769 5766 5764 5761 5758 5756 5754 5752 5750 5748 5747
5702 5705 5711 5718 5724 5711 5749 5781 5782 5779 5782 5790 5790 5793 5794 5793 5794 5799 5801 5798 5796 5797 5794 5792 5790 5787 5785 5784 5781 5778 5775 5772 5769 5766 5764 5762 5759 5756 5754 5751 5749 5747 5746 5744
5703 5698 5701 5709 5709 5720 5749 5768 5771 5765 5766 5785 5786 5787 5789 5789 5785 5785 5792 5795 5793 5793 5792 5790 5789 5786 5782 5779 5777 5774 5771 5769 5766 5763 5761 5760 5757 5754 5751 5748 5746 5745 5742 5740
5702 5699 5694 5701 5699 5703 5733 5761 5774 5767 5750 5777 5781 5779 5781 5778 5762 5765 5781 5786 5787 5787 5786 5784 5784 5782 5776 5774 5772 5768 5765 5763 5761 5761 5759 5758 5756 5752 5749 5747 5745 5743 5741 5739
5684 5686 5687 5692 5695 5711 5735 5756 5764 5738 5740 5769 5774 5775 5775 5770 5769 5772 5777 5777 5778 5779 5778 5778 5775 5771 5768 5768 5765 5761 5760 5758 5759 5759 5757 5754 5752 5749 5747 5745 5743 5740 5738 5735
5682 5683 5685 5690 5687 5697 5730 5742 5736 5737 5755 5763 5765 5766 5764 5764 5766 5767 5767 5768 5769 5769 5769 5768 5764 5761 5761 5761 5758 5754 5752 5755 5755 5754 5750 5748 5746 5745 5744 5740 5737 5736 5733 5730
5684 5690 5694 5693 5694 5709 5722 5726 5735 5745 5747 5752 5757 5758 5758 5756 5755 5756 5756 5757 5758 5758 5758 5757 5755 5752 5752 5752 5751 5747 5747 5748 5748 5746 5743 5741 5739 5737 5736 5733 5730 5728 5727 5725
5680 5692 5691 5689 5694 5704 5711 5719 5730 5736 5740 5744 5750 5752 5751 5748 5746 5745 5745 5746 5746 5746 5746 5746 5745 5742 5741 5742 5742 5741 5741 5741 5739 5736 5734 5733 5730 5728 5726 5724 5722 5719 5717 5717
5664 5677 5678 5679 5688 5693 5701 5709 5716 5725 5732 5736 5739 5743 5741 5738 5736 5735 5734 5734 5734 5734 5735 5736 5734 5731 5731 5732 5732 5733 5733 5733 5730 5727 5726 5724 5722 5718 5715 5711 5708 5708 5706 5706
5660 5665 5668 5669 5680 5683 5688 5700 5711 5715 5718 5722 5724 5726 5727 5726 5725 5725 5724 5724 5725 5724 5725 5724 5723 5722 5722 5722 5722 5723 5724 5724 5722 5719 5717 5715 5712 5710 5707 5704 5699 5694 5694 5695